Time,TemperatureF,DewpointF,PressureIn,WindDirection,WindDirectionDegrees,WindSpeedMPH,WindSpeedGustMPH,Humidity,HourlyPrecipIn,Conditions,Clouds,dailyrainin,SoftwareType,DateUTC
2013-09-30 00:25:00,59.0,-99.9,-100.00,NNE,27,2.0,5.0,-999,-99.99,,,-99.99,,2013-09-30 04:25:00,
2013-09-30 00:33:00,59.0,-99.9,-100.00,NNE,27,2.0,5.0,-999,-99.99,,,-99.99,,2013-09-30 04:33:00,
2013-09-30 00:44:00,59.0,-99.9,-100.00,NNE,27,2.0,5.0,-999,-99.99,,,-99.99,,2013-09-30 04:44:00,
2013-09-30 01:23:00,58.0,-99.9,-100.00,ENE,74,2.0,4.0,-999,-99.99,,,-99.99,,2013-09-30 05:23:00,
2013-09-30 01:34:00,58.0,-99.9,-100.00,ENE,74,2.0,4.0,-999,-99.99,,,-99.99,,2013-09-30 05:34:00,
2013-09-30 02:22:00,55.0,-99.9,-100.00,East,91,2.0,3.0,-999,-99.99,,,-99.99,,2013-09-30 06:22:00,
2013-09-30 02:32:00,55.0,-99.9,-100.00,East,91,2.0,3.0,-999,-99.99,,,-99.99,,2013-09-30 06:32:00,
2013-09-30 02:52:00,56.0,-99.9,-100.00,East,88,2.0,5.0,-999,-99.99,,,-99.99,,2013-09-30 06:52:00,
2013-09-30 03:22:00,53.0,-99.9,-100.00,North,-999,0.0,1.0,-999,-99.99,,,-99.99,,2013-09-30 07:22:00,
2013-09-30 03:32:00,53.0,-99.9,-100.00,North,-999,0.0,1.0,-999,-99.99,,,-99.99,,2013-09-30 07:32:00,
2013-09-30 03:53:00,54.0,-99.9,-100.00,North,-999,0.0,3.0,-999,-99.99,,,-99.99,,2013-09-30 07:53:00,
2013-09-30 04:03:00,54.0,-99.9,-100.00,North,-999,0.0,3.0,-999,-99.99,,,-99.99,,2013-09-30 08:03:00,
2013-09-30 04:22:00,53.0,-99.9,-100.00,SSE,158,1.0,3.0,-999,-99.99,,,-99.99,,2013-09-30 08:22:00,
2013-09-30 04:42:00,53.0,-99.9,-100.00,SE,136,1.0,3.0,-999,-99.99,,,-99.99,,2013-09-30 08:42:00,
2013-09-30 04:52:00,53.0,-99.9,-100.00,SE,136,1.0,3.0,-999,-99.99,,,-99.99,,2013-09-30 08:52:00,
2013-09-30 05:12:00,55.0,-99.9,-100.00,SE,141,0.0,3.0,-999,-99.99,,,-99.99,,2013-09-30 09:12:00,
2013-09-30 05:22:00,55.0,-99.9,-100.00,SE,142,1.0,3.0,-999,-99.99,,,-99.99,,2013-09-30 09:22:00,
2013-09-30 05:33:00,55.0,-99.9,-100.00,SE,142,1.0,3.0,-999,-99.99,,,-99.99,,2013-09-30 09:33:00,
2013-09-30 06:13:00,53.0,-99.9,-100.00,ESE,111,2.0,3.0,-999,-99.99,,,-99.99,,2013-09-30 10:13:00,
2013-09-30 06:53:00,53.0,-99.9,-100.00,ESE,111,2.0,3.0,-999,-99.99,,,-99.99,,2013-09-30 10:53:00,
2013-09-30 07:23:00,51.0,-99.9,-100.00,ESE,116,1.0,3.0,-999,-99.99,,,-99.99,,2013-09-30 11:23:00,
2013-09-30 07:33:00,51.0,-99.9,-100.00,ESE,116,1.0,3.0,-999,-99.99,,,-99.99,,2013-09-30 11:33:00,
2013-09-30 07:52:00,52.0,-99.9,-100.00,ESE,121,2.0,3.0,-999,-99.99,,,-99.99,,2013-09-30 11:52:00,
2013-09-30 08:02:00,52.0,-99.9,-100.00,ESE,121,2.0,3.0,-999,-99.99,,,-99.99,,2013-09-30 12:02:00,
2013-09-30 08:22:00,51.0,-99.9,-100.00,East,99,2.0,3.0,-999,-99.99,,,-99.99,,2013-09-30 12:22:00,
2013-09-30 08:42:00,51.0,-99.9,-100.00,ESE,106,2.0,4.0,-999,-99.99,,,-99.99,,2013-09-30 12:42:00,
2013-09-30 09:12:00,51.0,-99.9,-100.00,ESE,106,2.0,4.0,-999,-99.99,,,-99.99,,2013-09-30 13:12:00,
2013-09-30 09:22:00,54.0,-99.9,-100.00,ESE,110,2.0,4.0,-999,-99.99,,,-99.99,,2013-09-30 13:22:00,
2013-09-30 09:32:00,54.0,-99.9,-100.00,ESE,110,2.0,4.0,-999,-99.99,,,-99.99,,2013-09-30 13:32:00,
2013-09-30 09:42:00,54.0,-99.9,-100.00,ESE,110,2.0,4.0,-999,-99.99,,,-99.99,,2013-09-30 13:42:00,
2013-09-30 09:52:00,54.0,-99.9,-100.00,ESE,110,2.0,4.0,-999,-99.99,,,-99.99,,2013-09-30 13:52:00,
2013-09-30 10:22:00,59.0,-99.9,-100.00,SSE,154,1.0,4.0,-999,-99.99,,,-99.99,,2013-09-30 14:22:00,
2013-09-30 10:32:00,59.0,-99.9,-100.00,SSE,154,1.0,4.0,-999,-99.99,,,-99.99,,2013-09-30 14:32:00,
2013-09-30 10:53:00,57.0,-99.9,-100.00,SE,129,1.0,4.0,-999,-99.99,,,-99.99,,2013-09-30 14:53:00,
2013-09-30 11:02:00,57.0,-99.9,-100.00,SE,129,1.0,4.0,-999,-99.99,,,-99.99,,2013-09-30 15:02:00,
2013-09-30 11:23:00,63.0,-99.9,-100.00,SSW,198,4.0,6.0,-999,-99.99,,,-99.99,,2013-09-30 15:23:00,
2013-09-30 11:54:00,60.0,-99.9,-100.00,SSW,201,5.0,6.0,-999,-99.99,,,-99.99,,2013-09-30 15:54:00,
2013-09-30 12:05:00,60.0,-99.9,-100.00,SSW,201,5.0,6.0,-999,-99.99,,,-99.99,,2013-09-30 16:05:00,
2013-09-30 12:14:00,60.0,-99.9,-100.00,SSW,201,5.0,6.0,-999,-99.99,,,-99.99,,2013-09-30 16:14:00,
2013-09-30 12:24:00,64.0,-99.9,-100.00,SSW,209,7.0,8.0,-999,-99.99,,,-99.99,,2013-09-30 16:24:00,
2013-09-30 12:34:00,64.0,-99.9,-100.00,SSW,209,7.0,8.0,-999,-99.99,,,-99.99,,2013-09-30 16:34:00,
2013-09-30 12:54:00,63.0,-99.9,-100.00,SSW,210,8.0,9.0,-999,-99.99,,,-99.99,,2013-09-30 16:54:00,
2013-09-30 13:04:00,63.0,-99.9,-100.00,SSW,210,8.0,9.0,-999,-99.99,,,-99.99,,2013-09-30 17:04:00,
2013-09-30 13:13:00,63.0,-99.9,-100.00,SSW,210,8.0,9.0,-999,-99.99,,,-99.99,,2013-09-30 17:13:00,
2013-09-30 13:23:00,65.0,-99.9,-100.00,SW,233,7.0,9.0,-999,-99.99,,,-99.99,,2013-09-30 17:23:00,
2013-09-30 13:43:00,64.0,-99.9,-100.00,SSW,203,7.0,8.0,-999,-99.99,,,-99.99,,2013-09-30 17:43:00,
2013-09-30 13:53:00,64.0,-99.9,-100.00,SSW,203,7.0,8.0,-999,-99.99,,,-99.99,,2013-09-30 17:53:00,
2013-09-30 14:02:00,64.0,-99.9,-100.00,SSW,203,7.0,8.0,-999,-99.99,,,-99.99,,2013-09-30 18:02:00,
2013-09-30 14:22:00,66.0,-99.9,-100.00,SW,222,6.0,8.0,-999,-99.99,,,-99.99,,2013-09-30 18:22:00,
2013-09-30 14:32:00,66.0,-99.9,-100.00,SW,222,6.0,8.0,-999,-99.99,,,-99.99,,2013-09-30 18:32:00,
2013-09-30 15:22:00,67.0,-99.9,-100.00,WSW,250,6.0,8.0,-999,-99.99,,,-99.99,,2013-09-30 19:22:00,
2013-09-30 15:32:00,67.0,-99.9,-100.00,WSW,250,6.0,8.0,-999,-99.99,,,-99.99,,2013-09-30 19:32:00,
2013-09-30 15:42:00,67.0,-99.9,-100.00,WSW,250,6.0,8.0,-999,-99.99,,,-99.99,,2013-09-30 19:42:00,
2013-09-30 15:53:00,67.0,-99.9,-100.00,WSW,250,8.0,10.0,-999,-99.99,,,-99.99,,2013-09-30 19:53:00,
2013-09-30 16:02:00,67.0,-99.9,-100.00,WSW,250,8.0,10.0,-999,-99.99,,,-99.99,,2013-09-30 20:02:00,
2013-09-30 16:23:00,65.0,-99.9,-100.00,WNW,292,4.0,6.0,-999,-99.99,,,-99.99,,2013-09-30 20:23:00,
2013-09-30 16:43:00,67.0,-99.9,-100.00,West,270,6.0,9.0,-999,-99.99,,,-99.99,,2013-09-30 20:43:00,
2013-09-30 16:53:00,67.0,-99.9,-100.00,West,270,6.0,9.0,-999,-99.99,,,-99.99,,2013-09-30 20:53:00,
2013-09-30 17:12:00,66.0,-99.9,-100.00,NW,322,2.0,7.0,-999,-99.99,,,-99.99,,2013-09-30 21:12:00,
2013-09-30 17:23:00,66.0,-99.9,-100.00,NW,320,3.0,3.0,-999,-99.99,,,-99.99,,2013-09-30 21:23:00,
2013-09-30 17:34:00,66.0,-99.9,-100.00,NW,320,3.0,3.0,-999,-99.99,,,-99.99,,2013-09-30 21:34:00,
2013-09-30 17:54:00,66.0,-99.9,-100.00,NW,322,2.0,7.0,-999,-99.99,,,-99.99,,2013-09-30 21:54:00,
2013-09-30 18:13:00,66.0,-99.9,-100.00,NW,323,2.0,4.0,-999,-99.99,,,-99.99,,2013-09-30 22:13:00,
2013-09-30 18:24:00,65.0,-99.9,-100.00,NNW,341,2.0,3.0,-999,-99.99,,,-99.99,,2013-09-30 22:24:00,
2013-09-30 18:34:00,65.0,-99.9,-100.00,NNW,341,2.0,3.0,-999,-99.99,,,-99.99,,2013-09-30 22:34:00,
2013-09-30 18:54:00,66.0,-99.9,-100.00,NW,323,2.0,4.0,-999,-99.99,,,-99.99,,2013-09-30 22:54:00,
2013-09-30 19:03:00,66.0,-99.9,-100.00,NW,323,2.0,4.0,-999,-99.99,,,-99.99,,2013-09-30 23:03:00,
2013-09-30 19:12:00,66.0,-99.9,-100.00,NW,323,2.0,4.0,-999,-99.99,,,-99.99,,2013-09-30 23:12:00,
2013-09-30 19:23:00,66.0,-99.9,-100.00,North,-999,0.0,3.0,-999,-99.99,,,-99.99,,2013-09-30 23:23:00,
2013-09-30 19:34:00,66.0,-99.9,-100.00,North,-999,0.0,3.0,-999,-99.99,,,-99.99,,2013-09-30 23:34:00,
2013-09-30 19:43:00,66.0,-99.9,-100.00,North,-999,0.0,3.0,-999,-99.99,,,-99.99,,2013-09-30 23:43:00,
2013-09-30 19:54:00,65.0,-99.9,-100.00,NNW,343,2.0,3.0,-999,-99.99,,,-99.99,,2013-09-30 23:54:00,
2013-09-30 20:03:00,65.0,-99.9,-100.00,NNW,343,2.0,3.0,-999,-99.99,,,-99.99,,2013-10-01 00:03:00,
2013-09-30 20:12:00,65.0,-99.9,-100.00,NNW,343,2.0,3.0,-999,-99.99,,,-99.99,,2013-10-01 00:12:00,
2013-09-30 20:23:00,62.0,-99.9,-100.00,North,-999,0.0,0.0,-999,-99.99,,,-99.99,,2013-10-01 00:23:00,
2013-09-30 20:32:00,62.0,-99.9,-100.00,North,-999,0.0,0.0,-999,-99.99,,,-99.99,,2013-10-01 00:32:00,
2013-09-30 20:52:00,63.0,-99.9,-100.00,North,-999,0.0,3.0,-999,-99.99,,,-99.99,,2013-10-01 00:52:00,
2013-09-30 21:12:00,61.0,-99.9,-100.00,NE,54,0.0,1.0,-999,-99.99,,,-99.99,,2013-10-01 01:12:00,
2013-09-30 21:22:00,61.0,-99.9,-100.00,ESE,111,0.0,3.0,-999,-99.99,,,-99.99,,2013-10-01 01:22:00,
2013-09-30 21:52:00,61.0,-99.9,-100.00,NE,54,0.0,1.0,-999,-99.99,,,-99.99,,2013-10-01 01:52:00,
2013-09-30 22:02:00,61.0,-99.9,-100.00,NE,54,0.0,1.0,-999,-99.99,,,-99.99,,2013-10-01 02:02:00,
2013-09-30 22:23:00,62.0,-99.9,-100.00,ESE,117,2.0,5.0,-999,-99.99,,,-99.99,,2013-10-01 02:23:00,
2013-09-30 22:33:00,62.0,-99.9,-100.00,ESE,117,2.0,5.0,-999,-99.99,,,-99.99,,2013-10-01 02:33:00,
2013-09-30 22:52:00,63.0,-99.9,-100.00,ESE,121,2.0,6.0,-999,-99.99,,,-99.99,,2013-10-01 02:52:00,
2013-09-30 23:22:00,61.0,-99.9,-100.00,SE,124,2.0,6.0,-999,-99.99,,,-99.99,,2013-10-01 03:22:00,
2013-09-30 23:44:00,61.0,-99.9,-100.00,ESE,121,2.0,7.0,-999,-99.99,,,-99.99,,2013-10-01 03:44:00,
2013-09-30 23:55:00,61.0,-99.9,-100.00,ESE,121,2.0,7.0,-999,-99.99,,,-99.99,,2013-10-01 03:55:00,